Flag for Romania Weather past 2 weeks in Iasi, Romania

Now
88 °F

Sunny.


Feels Like: 88 °F
Forecast: 72 / 98 °F
Wind: 7 mph from South

Location: Iasi Airport

Current Time: Aug 31, 2015 at 9:05:00 PM

Latest Report: Aug 31, 2015 at 8:30 PM


Visibility: 10 mi

Pressure: 29.98 "Hg

Humidity: 40%

Dew point: 61 °F

Location of IasiLocation

Historic Weather in Iasi — Graph

°F

Iasi temperature yesterday

Maximum temperature yesterday: 86 °F (at 3:00 PM)
Minimum temperature yesterday: 70 °F (at 5:00 AM)
Average temperature yesterday: 79 °F

Past Weeks' High & Low Weather Summary

 TemperatureHumidityPressure
High99 °F (Aug 31, 4:30 PM)100% (Aug 17, 8:30 AM)30.27 "Hg (Aug 17, 8:30 AM)
Low52 °F (Aug 22, 6:30 AM)20% (Aug 25, 3:00 PM)29.80 "Hg (Aug 16, 8:00 PM)
Average72 °F62%30.08 "Hg
* Reported Aug 16 8:00 PM — Aug 31 8:00 PM, Iasi, Weather by CustomWeather, © 2015

Note: Actual official high and low records may vary slightly from our data, if they occured in-between our weather recording intervals... More about our weather records

Advertising

Iasi weather history for previous 24 hours

 ConditionsComfort  
Time TempWeatherWind HumidityBarometerVisibility
8:00 PM
Mon, Aug 31
90 °FSunny.8 mph38%29.98 "Hg10 mi
7:30 PM91 °FPassing clouds.8 mph36%29.98 "HgN/A
7:00 PM93 °FSunny.7 mph36%29.98 "Hg10 mi
6:30 PM95 °FPassing clouds.8 mph34%29.98 "HgN/A
6:00 PM95 °FPassing clouds.7 mph34%30.01 "HgN/A
5:30 PM97 °FExtremely hot.6 mph28%30.01 "HgN/A
5:00 PM97 °FPassing clouds.7 mph28%30.01 "HgN/A
4:30 PM99 °FPassing clouds.7 mph27%30.01 "HgN/A
4:00 PM97 °FPassing clouds.7 mph30%30.04 "HgN/A
3:30 PM97 °FSunny.5 mph32%30.04 "Hg10 mi
3:00 PM95 °FSunny.5 mph36%30.04 "Hg10 mi
2:30 PM95 °FPassing clouds.7 mph39%30.07 "HgN/A
2:00 PM93 °FPassing clouds.7 mph39%30.07 "HgN/A
1:30 PM91 °FPassing clouds.5 mph46%30.07 "HgN/A
1:00 PM91 °FPassing clouds.6 mph46%30.07 "HgN/A
12:30 PM90 °FPassing clouds.6 mph46%30.09 "HgN/A
12:00 PM88 °FPassing clouds.5 mph52%30.09 "HgN/A
11:30 AM86 °FPassing clouds.5 mph59%30.09 "HgN/A
11:00 AM84 °FPassing clouds.5 mph58%30.09 "HgN/A
10:30 AM82 °FPassing clouds.6 mph62%30.12 "HgN/A
10:00 AM81 °FSunny.5 mph66%30.12 "Hg10 mi
9:30 AM79 °FPassing clouds.5 mph65%30.12 "HgN/A
9:00 AM75 °FPassing clouds.3 mph74%30.12 "HgN/A
8:30 AM73 °FSunny.7 mph74%30.12 "Hg10 mi
8:00 AM72 °FSunny.7 mph78%30.12 "Hg10 mi
7:30 AM70 °FSunny.7 mph78%30.12 "Hg10 mi
7:00 AM68 °FClear.9 mph83%30.12 "Hg10 mi
6:30 AM68 °FClear.8 mph78%30.12 "Hg10 mi
6:00 AM68 °FClear.6 mph78%30.12 "Hg10 mi
5:30 AM68 °FClear.7 mph78%30.12 "Hg10 mi
5:00 AM68 °FClear.7 mph78%30.12 "Hg10 mi
4:00 AM72 °FClear.6 mph73%30.12 "Hg10 mi
3:00 AM72 °FClear.5 mph73%30.12 "Hg10 mi
2:00 AM72 °FClear.6 mph73%30.15 "Hg10 mi
1:00 AM73 °FClear.6 mph69%30.15 "Hg10 mi
12:00 AM75 °FClear.7 mph65%30.15 "Hg10 mi
11:00 PM
Sun, Aug 30
77 °FClear.5 mph61%30.15 "Hg10 mi
10:00 PM79 °FClear.6 mph61%30.15 "Hg10 mi
9:00 PM81 °FClear.6 mph58%30.15 "Hg10 mi
Weather by CustomWeather, © 2015

See weather overviewHow to use our weather pages